International Virtual Aviation Organisation

Russian Federation and Kazakhstan MCD

 

Карточка аэропорта UWGG

Внимание!
Информация на этой странице в стадии наполнения.
Если вы не увидели какой-то информации, или заметили неточность - пожалуйста сообщите нам!
Спасибо!
Команда RU-STAFF
Название аэропортаСтригино
Название аэропорта (англ.)Strigino
Превышение256 ft. (78 m.)
Координаты56°13.8', 43°47.202'
Высота перехода900
Эшелон переходаBy ATC
Коды ответчика2120-2147
Зона ОрВДМосква РПИ (UUWV)
Данные METARUWGG 140730Z 27005MPS 240V310 9999 BKN040 11/06 Q1014 R18L/190060 TEMPO 26007G14MPS
Проноз погоды (TAF)UWGG 140451Z 1406/1506 26005MPS 9999 BKN015 TX13/1410Z TN07/1423Z TEMPO 1406/1415 28006G14MPS 4000 -SHRA BKN011CB
NOTAMshow/hide NOTAM
AWOS   TABLE

Информация о ВПП

ВПП Длина ВПП (м.) Покрытие Курс ВПП Частота ILS
18R2805Асфальтобетон179109.9
36L2805Асфальтобетон359109.5

Диспетчерские позиции

Позывной Наименование органа УВД Частота
UWGG_GNDНижний - Руление121.800
UWGG_TWRНижний - Вышка120.400
UWGG_R_APPНижний - Круг120.800
UWGG_APPНижний - Подход124.700



Спутниковое изображение